Time,TemperatureF,DewpointF,PressureIn,WindDirection,WindDirectionDegrees,WindSpeedMPH,WindSpeedGustMPH,Humidity,HourlyPrecipIn,Conditions,Clouds,dailyrainin,SoftwareType,DateUTC
2013-07-16 00:01:00,83.2,74.0,30.18,NNW,337,0.0,3.0,74,0.00,,,0.00,weatherlink.com 1.10,2013-07-16 04:01:00,
2013-07-16 00:16:00,83.8,73.0,30.18,NNW,348,2.0,4.0,70,0.00,,,0.00,weatherlink.com 1.10,2013-07-16 04:16:00,
2013-07-16 00:31:00,84.0,73.0,30.17,North,360,0.0,5.0,69,0.00,,,0.00,weatherlink.com 1.10,2013-07-16 04:31:00,
2013-07-16 00:46:00,83.6,74.0,30.18,North,360,0.0,3.0,72,0.00,,,0.00,weatherlink.com 1.10,2013-07-16 04:46:00,
2013-07-16 01:01:00,82.8,74.0,30.17,North,5,1.0,4.0,74,0.00,,,0.00,weatherlink.com 1.10,2013-07-16 05:01:00,
2013-07-16 01:16:00,82.8,73.0,30.17,North,5,3.0,5.0,73,0.00,,,0.00,weatherlink.com 1.10,2013-07-16 05:16:00,
2013-07-16 01:31:00,82.6,73.0,30.17,North,5,2.0,4.0,72,0.00,,,0.00,weatherlink.com 1.10,2013-07-16 05:31:00,
2013-07-16 01:46:00,82.4,73.0,30.17,NNE,13,2.0,4.0,74,0.00,,,0.00,weatherlink.com 1.10,2013-07-16 05:46:00,
2013-07-16 02:01:00,82.2,73.0,30.16,North,9,2.0,4.0,74,0.00,,,0.00,weatherlink.com 1.10,2013-07-16 06:01:00,
2013-07-16 02:16:00,82.4,73.0,30.16,North,360,3.0,6.0,74,0.00,,,0.00,weatherlink.com 1.10,2013-07-16 06:16:00,
2013-07-16 02:31:00,82.6,73.0,30.16,North,355,3.0,5.0,72,0.00,,,0.00,weatherlink.com 1.10,2013-07-16 06:31:00,
2013-07-16 02:46:00,82.6,73.0,30.16,North,355,4.0,6.0,72,0.00,,,0.00,weatherlink.com 1.10,2013-07-16 06:46:00,
2013-07-16 03:01:00,82.2,73.0,30.16,NNE,16,2.0,5.0,73,0.00,,,0.00,weatherlink.com 1.10,2013-07-16 07:01:00,
2013-07-16 03:16:00,82.0,73.0,30.16,North,360,2.0,6.0,74,0.00,,,0.00,weatherlink.com 1.10,2013-07-16 07:16:00,
2013-07-16 03:31:00,81.8,73.0,30.16,North,355,2.0,5.0,74,0.00,,,0.00,weatherlink.com 1.10,2013-07-16 07:31:00,
2013-07-16 03:46:00,82.0,73.0,30.16,North,355,1.0,7.0,73,0.00,,,0.00,weatherlink.com 1.10,2013-07-16 07:46:00,
2013-07-16 04:01:00,82.2,73.0,30.16,North,11,4.0,6.0,73,0.00,,,0.00,weatherlink.com 1.10,2013-07-16 08:01:00,
2013-07-16 04:16:00,82.0,73.0,30.16,North,11,4.0,7.0,73,0.00,,,0.00,weatherlink.com 1.10,2013-07-16 08:16:00,
2013-07-16 04:31:00,81.8,72.0,30.16,NNW,347,1.0,7.0,73,0.00,,,0.00,weatherlink.com 1.10,2013-07-16 08:31:00,
2013-07-16 04:46:00,81.6,73.0,30.16,North,11,5.0,6.0,74,0.00,,,0.00,weatherlink.com 1.10,2013-07-16 08:46:00,
2013-07-16 05:01:00,81.2,73.0,30.16,NNE,27,3.0,5.0,75,0.00,,,0.00,weatherlink.com 1.10,2013-07-16 09:01:00,
2013-07-16 05:16:00,80.7,73.0,30.16,NNE,27,5.0,6.0,78,0.00,,,0.00,weatherlink.com 1.10,2013-07-16 09:16:00,
2013-07-16 05:31:00,80.3,73.0,30.17,NNE,22,4.0,7.0,79,0.00,,,0.00,weatherlink.com 1.10,2013-07-16 09:31:00,
2013-07-16 05:46:00,79.9,73.0,30.17,NNE,22,3.0,6.0,79,0.00,,,0.00,weatherlink.com 1.10,2013-07-16 09:46:00,
2013-07-16 06:01:00,79.8,73.0,30.18,NNE,17,4.0,6.0,79,0.00,,,0.00,weatherlink.com 1.10,2013-07-16 10:01:00,
2013-07-16 06:16:00,79.8,73.0,30.18,NNE,17,4.0,4.0,80,0.00,,,0.00,weatherlink.com 1.10,2013-07-16 10:16:00,
2013-07-16 06:31:00,79.8,73.0,30.18,North,11,5.0,7.0,79,0.00,,,0.00,weatherlink.com 1.10,2013-07-16 10:31:00,
2013-07-16 06:46:00,80.1,73.0,30.18,North,5,5.0,7.0,78,0.00,,,0.00,weatherlink.com 1.10,2013-07-16 10:46:00,
2013-07-16 07:01:00,80.5,73.0,30.18,NNE,24,4.0,9.0,78,0.00,,,0.00,weatherlink.com 1.10,2013-07-16 11:01:00,
2013-07-16 07:16:00,81.1,73.0,30.18,NNE,23,5.0,8.0,77,0.00,,,0.00,weatherlink.com 1.10,2013-07-16 11:16:00,
2013-07-16 07:31:00,81.2,73.0,30.19,NNE,29,5.0,7.0,76,0.00,,,0.00,weatherlink.com 1.10,2013-07-16 11:31:00,
2013-07-16 07:46:00,81.8,74.0,30.19,NE,36,5.0,8.0,76,0.00,,,0.00,weatherlink.com 1.10,2013-07-16 11:46:00,
2013-07-16 08:01:00,82.4,74.0,30.19,NNE,32,5.0,7.0,75,0.00,,,0.00,weatherlink.com 1.10,2013-07-16 12:01:00,
2013-07-16 08:16:00,83.4,74.0,30.19,NE,49,3.0,7.0,73,0.00,,,0.00,weatherlink.com 1.10,2013-07-16 12:16:00,
2013-07-16 08:31:00,84.0,74.0,30.19,ENE,72,3.0,7.0,72,0.00,,,0.00,weatherlink.com 1.10,2013-07-16 12:31:00,
2013-07-16 08:46:00,84.3,73.0,30.20,ENE,71,8.0,9.0,69,0.00,,,0.00,weatherlink.com 1.10,2013-07-16 12:46:00,
2013-07-16 09:01:00,84.7,72.0,30.19,East,99,9.0,11.0,66,0.00,,,0.00,weatherlink.com 1.10,2013-07-16 13:01:00,
2013-07-16 09:16:00,85.1,72.0,30.20,ESE,102,5.0,9.0,65,0.00,,,0.00,weatherlink.com 1.10,2013-07-16 13:16:00,
2013-07-16 09:31:00,85.1,70.0,30.20,ENE,63,8.0,12.0,61,0.00,,,0.00,weatherlink.com 1.10,2013-07-16 13:31:00,
2013-07-16 09:46:00,85.5,68.0,30.19,ENE,72,8.0,11.0,57,0.00,,,0.00,weatherlink.com 1.10,2013-07-16 13:46:00,
2013-07-16 10:02:00,85.7,69.0,30.20,NE,53,5.0,12.0,58,0.00,,,0.00,weatherlink.com 1.10,2013-07-16 14:02:00,
2013-07-16 10:17:00,85.9,69.0,30.20,East,93,6.0,13.0,58,0.00,,,0.00,weatherlink.com 1.10,2013-07-16 14:17:00,
2013-07-16 10:32:00,86.1,67.0,30.20,East,88,9.0,11.0,53,0.00,,,0.00,weatherlink.com 1.10,2013-07-16 14:32:00,
2013-07-16 10:47:00,86.5,68.0,30.20,NE,55,12.0,12.0,55,0.00,,,0.00,weatherlink.com 1.10,2013-07-16 14:47:00,
2013-07-16 11:02:00,86.7,69.0,30.20,NE,51,6.0,10.0,56,0.00,,,0.00,weatherlink.com 1.10,2013-07-16 15:02:00,
2013-07-16 11:17:00,87.2,66.0,30.20,NE,53,8.0,21.0,50,0.00,,,0.00,weatherlink.com 1.10,2013-07-16 15:17:00,
2013-07-16 11:32:00,87.4,67.0,30.20,ENE,61,10.0,15.0,50,0.00,,,0.00,weatherlink.com 1.10,2013-07-16 15:32:00,
2013-07-16 11:47:00,87.4,67.0,30.20,East,79,10.0,15.0,51,0.00,,,0.00,weatherlink.com 1.10,2013-07-16 15:47:00,
2013-07-16 12:02:00,87.4,67.0,30.20,ENE,61,10.0,13.0,50,0.00,,,0.00,weatherlink.com 1.10,2013-07-16 16:02:00,
2013-07-16 12:17:00,87.8,66.0,30.20,East,86,13.0,14.0,48,0.00,,,0.00,weatherlink.com 1.10,2013-07-16 16:17:00,
2013-07-16 12:32:00,88.0,68.0,30.19,ENE,72,7.0,12.0,52,0.00,,,0.00,weatherlink.com 1.10,2013-07-16 16:32:00,
2013-07-16 12:47:00,88.2,67.0,30.19,ESE,107,8.0,10.0,50,0.00,,,0.00,weatherlink.com 1.10,2013-07-16 16:47:00,
2013-07-16 13:02:00,88.2,69.0,30.19,ESE,104,8.0,11.0,53,0.00,,,0.00,weatherlink.com 1.10,2013-07-16 17:02:00,
2013-07-16 13:17:00,88.4,69.0,30.19,ESE,112,4.0,12.0,53,0.00,,,0.00,weatherlink.com 1.10,2013-07-16 17:17:00,
2013-07-16 13:32:00,88.0,69.0,30.18,ESE,114,7.0,10.0,53,0.00,,,0.00,weatherlink.com 1.10,2013-07-16 17:32:00,
2013-07-16 13:47:00,87.8,71.0,30.18,SSE,150,10.0,13.0,58,0.00,,,0.00,weatherlink.com 1.10,2013-07-16 17:47:00,
2013-07-16 14:02:00,87.8,71.0,30.18,SE,128,11.0,14.0,57,0.00,,,0.00,weatherlink.com 1.10,2013-07-16 18:02:00,
2013-07-16 14:17:00,88.0,72.0,30.18,SSE,162,7.0,11.0,59,0.00,,,0.00,weatherlink.com 1.10,2013-07-16 18:17:00,
2013-07-16 14:32:00,88.2,67.0,30.17,SSE,151,9.0,11.0,50,0.00,,,0.00,weatherlink.com 1.10,2013-07-16 18:32:00,
2013-07-16 14:47:00,88.2,68.0,30.17,South,170,6.0,9.0,52,0.00,,,0.00,weatherlink.com 1.10,2013-07-16 18:47:00,
2013-07-16 15:02:00,88.6,70.0,30.17,SSE,162,5.0,10.0,55,0.00,,,0.00,weatherlink.com 1.10,2013-07-16 19:02:00,
2013-07-16 15:18:00,88.6,69.0,30.16,SE,146,10.0,11.0,52,0.00,,,0.00,weatherlink.com 1.10,2013-07-16 19:18:00,
2013-07-16 15:32:00,88.8,69.0,30.16,SE,136,5.0,10.0,53,0.00,,,0.00,weatherlink.com 1.10,2013-07-16 19:32:00,
2013-07-16 15:47:00,88.8,71.0,30.16,SSE,157,6.0,11.0,55,0.00,,,0.00,weatherlink.com 1.10,2013-07-16 19:47:00,
2013-07-16 16:02:00,88.6,71.0,30.15,South,174,7.0,8.0,57,0.00,,,0.00,weatherlink.com 1.10,2013-07-16 20:02:00,
2013-07-16 16:17:00,88.8,70.0,30.15,SSE,160,7.0,9.0,54,0.00,,,0.00,weatherlink.com 1.10,2013-07-16 20:17:00,
2013-07-16 16:32:00,88.8,71.0,30.15,SSE,163,6.0,8.0,55,0.00,,,0.00,weatherlink.com 1.10,2013-07-16 20:32:00,
2013-07-16 16:47:00,88.8,71.0,30.14,SSE,153,6.0,8.0,55,0.00,,,0.00,weatherlink.com 1.10,2013-07-16 20:47:00,
2013-07-16 17:02:00,89.0,69.0,30.14,SSE,153,4.0,8.0,52,0.00,,,0.00,weatherlink.com 1.10,2013-07-16 21:02:00,
2013-07-16 17:22:00,89.0,70.0,30.14,SSE,148,4.0,8.0,53,0.00,,,0.00,weatherlink.com 1.10,2013-07-16 21:22:00,
2013-07-16 17:47:00,89.0,70.0,30.14,SSE,163,6.0,7.0,54,0.00,,,0.00,weatherlink.com 1.10,2013-07-16 21:47:00,
2013-07-16 18:02:00,89.3,72.0,30.14,SSE,165,1.0,6.0,56,0.00,,,0.00,weatherlink.com 1.10,2013-07-16 22:02:00,
2013-07-16 18:17:00,89.3,70.0,30.14,South,169,1.0,5.0,54,0.00,,,0.00,weatherlink.com 1.10,2013-07-16 22:17:00,
2013-07-16 18:32:00,89.3,70.0,30.14,SSE,165,0.0,5.0,54,0.00,,,0.00,weatherlink.com 1.10,2013-07-16 22:32:00,
2013-07-16 18:47:00,89.5,70.0,30.14,SSE,165,0.0,3.0,52,0.00,,,0.00,weatherlink.com 1.10,2013-07-16 22:47:00,
2013-07-16 19:18:00,89.0,70.0,30.14,SSE,165,0.0,1.0,54,0.00,,,0.00,weatherlink.com 1.10,2013-07-16 23:18:00,
2013-07-16 19:32:00,89.3,73.0,30.15,SSE,165,0.0,1.0,58,0.00,,,0.00,weatherlink.com 1.10,2013-07-16 23:32:00,
2013-07-16 19:47:00,88.2,75.0,30.14,SSE,165,0.0,0.0,65,0.00,,,0.00,weatherlink.com 1.10,2013-07-16 23:47:00,
2013-07-16 20:02:00,87.0,76.0,30.15,SSE,165,0.0,0.0,69,0.00,,,0.00,weatherlink.com 1.10,2013-07-17 00:02:00,
2013-07-16 20:17:00,86.5,75.0,30.15,SSE,161,0.0,0.0,69,0.00,,,0.00,weatherlink.com 1.10,2013-07-17 00:17:00,
2013-07-16 20:32:00,85.7,75.0,30.15,SSE,161,0.0,1.0,70,0.00,,,0.00,weatherlink.com 1.10,2013-07-17 00:32:00,
2013-07-16 20:47:00,85.3,75.0,30.15,SSE,161,0.0,1.0,71,0.00,,,0.00,weatherlink.com 1.10,2013-07-17 00:47:00,
2013-07-16 21:02:00,84.7,75.0,30.15,SSE,161,0.0,0.0,72,0.00,,,0.00,weatherlink.com 1.10,2013-07-17 01:02:00,
2013-07-16 21:17:00,84.1,75.0,30.16,SSE,161,0.0,0.0,74,0.00,,,0.00,weatherlink.com 1.10,2013-07-17 01:17:00,
2013-07-16 21:32:00,83.0,75.0,30.16,SSE,161,0.0,0.0,76,0.00,,,0.00,weatherlink.com 1.10,2013-07-17 01:32:00,
2013-07-16 21:47:00,82.4,75.0,30.16,SSE,161,0.0,0.0,79,0.00,,,0.00,weatherlink.com 1.10,2013-07-17 01:47:00,
2013-07-16 22:02:00,81.6,75.0,30.16,SSE,161,0.0,0.0,80,0.00,,,0.00,weatherlink.com 1.10,2013-07-17 02:02:00,
2013-07-16 22:17:00,81.2,73.0,30.16,SSE,161,0.0,0.0,77,0.00,,,0.00,weatherlink.com 1.10,2013-07-17 02:17:00,
2013-07-16 22:32:00,81.6,75.0,30.16,SSE,161,0.0,0.0,79,0.00,,,0.00,weatherlink.com 1.10,2013-07-17 02:32:00,
2013-07-16 22:47:00,80.7,74.0,30.16,SSE,161,0.0,1.0,81,0.00,,,0.00,weatherlink.com 1.10,2013-07-17 02:47:00,
2013-07-16 23:02:00,79.9,74.0,30.17,SSE,161,0.0,0.0,83,0.00,,,0.00,weatherlink.com 1.10,2013-07-17 03:02:00,
2013-07-16 23:17:00,79.9,75.0,30.17,SSE,157,0.0,0.0,84,0.00,,,0.00,weatherlink.com 1.10,2013-07-17 03:17:00,
2013-07-16 23:32:00,79.9,74.0,30.17,SSE,157,0.0,0.0,83,0.00,,,0.00,weatherlink.com 1.10,2013-07-17 03:32:00,
2013-07-16 23:47:00,79.8,74.0,30.17,SSE,157,0.0,0.0,82,0.00,,,0.00,weatherlink.com 1.10,2013-07-17 03:47:00,